![]() |
EMODnet Physics ERDDAP
Easier access to scientific data |
log in|
Brought to you by EMODnet Physics |
| Dataset Title: | NDBC - Collection of dew point temperature (DEWT) TimeSeries - IN SITU MultiPointTimeSeriesObservation
|
| Institution: | NDBC (Dataset ID: TS_DEWT_NDBC) |
| Information: | Summary
| License
| FGDC
| ISO 19115
| Metadata
| Background
| Subset
| Data Access Form
| Make a graph
|
| Name | Last modified | Size | Description | |
|---|---|---|---|---|
| Parent Directory | - | - | ||
| WAHV2_TS_DEWT_012005.nc | 28-Oct-2024 01:30 | 418871 | ||
| WAHV2_TS_DEWT_012008.nc | 28-Oct-2024 01:31 | 429681 | ||
| WAHV2_TS_DEWT_012009.nc | 28-Oct-2024 01:31 | 429689 | ||
| WAHV2_TS_DEWT_012010.nc | 28-Oct-2024 01:31 | 429676 | ||
| WAHV2_TS_DEWT_012011.nc | 28-Oct-2024 01:31 | 429681 | ||
| WAHV2_TS_DEWT_012012.nc | 28-Oct-2024 01:31 | 429682 | ||
| WAHV2_TS_DEWT_012013.nc | 28-Oct-2024 01:31 | 429983 | ||
| WAHV2_TS_DEWT_012014.nc | 28-Oct-2024 01:31 | 429899 | ||
| WAHV2_TS_DEWT_012015.nc | 28-Oct-2024 01:31 | 429902 | ||
| WAHV2_TS_DEWT_012016.nc | 28-Oct-2024 01:31 | 429896 | ||
| WAHV2_TS_DEWT_012017.nc | 28-Oct-2024 01:31 | 429910 | ||
| WAHV2_TS_DEWT_012018.nc | 28-Oct-2024 01:31 | 450715 | ||
| WAHV2_TS_DEWT_012019.nc | 28-Oct-2024 01:31 | 429901 | ||
| WAHV2_TS_DEWT_012020.nc | 28-Oct-2024 01:31 | 429906 | ||
| WAHV2_TS_DEWT_012021.nc | 28-Oct-2024 01:31 | 449969 | ||
| WAHV2_TS_DEWT_012022.nc | 28-Oct-2024 01:31 | 429899 | ||
| WAHV2_TS_DEWT_012023.nc | 28-Oct-2024 01:32 | 429900 | ||
| WAHV2_TS_DEWT_012024.nc | 28-Oct-2024 01:32 | 1264894 | ||
| WAHV2_TS_DEWT_022005.nc | 28-Oct-2024 01:32 | 1234451 | ||
| WAHV2_TS_DEWT_022008.nc | 28-Oct-2024 01:32 | 1264218 | ||
| WAHV2_TS_DEWT_022009.nc | 28-Oct-2024 01:32 | 1262471 | ||
| WAHV2_TS_DEWT_022010.nc | 28-Oct-2024 01:32 | 1265384 | ||
| WAHV2_TS_DEWT_022011.nc | 28-Oct-2024 01:32 | 1263293 | ||
| WAHV2_TS_DEWT_022012.nc | 28-Oct-2024 01:32 | 5072966 | ||
| WAHV2_TS_DEWT_022013.nc | 28-Oct-2024 01:32 | 3427950 | ||
| WAHV2_TS_DEWT_022014.nc | 28-Oct-2024 01:32 | 428665 | ||
| WAHV2_TS_DEWT_022015.nc | 28-Oct-2024 01:32 | 428652 | ||
| WAHV2_TS_DEWT_022016.nc | 28-Oct-2024 01:32 | 422876 | ||
| WAHV2_TS_DEWT_022017.nc | 28-Oct-2024 01:32 | 428681 | ||
| WAHV2_TS_DEWT_022018.nc | 28-Oct-2024 01:32 | 428681 | ||
| WAHV2_TS_DEWT_022019.nc | 28-Oct-2024 01:32 | 422281 | ||
| WAHV2_TS_DEWT_022020.nc | 28-Oct-2024 01:33 | 427808 | ||
| WAHV2_TS_DEWT_022021.nc | 28-Oct-2024 01:33 | 428601 | ||
| WAHV2_TS_DEWT_022022.nc | 28-Oct-2024 01:33 | 428495 | ||
| WAHV2_TS_DEWT_022023.nc | 28-Oct-2024 01:33 | 428681 | ||
| WAHV2_TS_DEWT_022024.nc | 16-Sep-2024 16:51 | 429025 | ||
| WAHV2_TS_DEWT_032005.nc | 28-Oct-2024 01:33 | 428678 | ||
| WAHV2_TS_DEWT_032008.nc | 28-Oct-2024 01:33 | 428678 | ||
| WAHV2_TS_DEWT_032009.nc | 28-Oct-2024 01:33 | 429023 | ||
| WAHV2_TS_DEWT_032010.nc | 28-Oct-2024 01:33 | 428681 | ||
| WAHV2_TS_DEWT_032011.nc | 28-Oct-2024 01:33 | 428678 | ||
| WAHV2_TS_DEWT_032012.nc | 28-Oct-2024 01:33 | 428677 | ||
| WAHV2_TS_DEWT_032013.nc | 28-Oct-2024 01:33 | 429213 | ||
| WAHV2_TS_DEWT_032014.nc | 28-Oct-2024 01:33 | 428873 | ||
| WAHV2_TS_DEWT_032015.nc | 28-Oct-2024 01:33 | 428874 | ||
| WAHV2_TS_DEWT_032016.nc | 28-Oct-2024 01:33 | 428870 | ||
| WAHV2_TS_DEWT_032017.nc | 28-Oct-2024 01:33 | 429219 | ||
| WAHV2_TS_DEWT_032018.nc | 28-Oct-2024 01:34 | 447724 | ||
| WAHV2_TS_DEWT_032019.nc | 28-Oct-2024 01:34 | 428869 | ||
| WAHV2_TS_DEWT_032021.nc | 28-Oct-2024 01:34 | 447094 | ||
| WAHV2_TS_DEWT_032022.nc | 28-Oct-2024 01:34 | 429220 | ||
| WAHV2_TS_DEWT_032023.nc | 28-Oct-2024 01:34 | 428878 | ||
| WAHV2_TS_DEWT_042005.nc | 28-Oct-2024 01:34 | 1024836 | ||
| WAHV2_TS_DEWT_042008.nc | 28-Oct-2024 01:34 | 943377 | ||
| WAHV2_TS_DEWT_042009.nc | 28-Oct-2024 01:34 | 1107324 | ||
| WAHV2_TS_DEWT_042010.nc | 28-Oct-2024 01:34 | 1028620 | ||
| WAHV2_TS_DEWT_042011.nc | 28-Oct-2024 01:34 | 1028587 | ||
| WAHV2_TS_DEWT_042012.nc | 28-Oct-2024 01:34 | 1026007 | ||
| WAHV2_TS_DEWT_042013.nc | 28-Oct-2024 01:34 | 3446160 | ||
| WAHV2_TS_DEWT_042014.nc | 28-Oct-2024 01:34 | 4951799 | ||
| WAHV2_TS_DEWT_042015.nc | 28-Oct-2024 01:35 | 429670 | ||
| WAHV2_TS_DEWT_042016.nc | 28-Oct-2024 01:35 | 429659 | ||
| WAHV2_TS_DEWT_042017.nc | 28-Oct-2024 01:35 | 429674 | ||
| WAHV2_TS_DEWT_042018.nc | 28-Oct-2024 01:35 | 429685 | ||
| WAHV2_TS_DEWT_042019.nc | 28-Oct-2024 01:35 | 429687 | ||
| WAHV2_TS_DEWT_042021.nc | 28-Oct-2024 01:35 | 429568 | ||
| WAHV2_TS_DEWT_042022.nc | 28-Oct-2024 01:35 | 429687 | ||
| WAHV2_TS_DEWT_042023.nc | 28-Oct-2024 01:35 | 429680 | ||
| WAHV2_TS_DEWT_052005.nc | 28-Oct-2024 01:35 | 429682 | ||
| WAHV2_TS_DEWT_052009.nc | 28-Oct-2024 01:35 | 429688 | ||
| WAHV2_TS_DEWT_052010.nc | 28-Oct-2024 01:35 | 428684 | ||
| WAHV2_TS_DEWT_052011.nc | 28-Oct-2024 01:35 | 429683 | ||
| WAHV2_TS_DEWT_052012.nc | 28-Oct-2024 01:35 | 429676 | ||
| WAHV2_TS_DEWT_052013.nc | 28-Oct-2024 01:35 | 429676 | ||
| WAHV2_TS_DEWT_052014.nc | 28-Oct-2024 01:36 | 429682 | ||
| WAHV2_TS_DEWT_052015.nc | 28-Oct-2024 01:36 | 429896 | ||
| WAHV2_TS_DEWT_052016.nc | 28-Oct-2024 01:36 | 429904 | ||
| WAHV2_TS_DEWT_052017.nc | 28-Oct-2024 01:36 | 429897 | ||
| WAHV2_TS_DEWT_052018.nc | 28-Oct-2024 01:36 | 429884 | ||
| WAHV2_TS_DEWT_052019.nc | 28-Oct-2024 01:36 | 429901 | ||
| WAHV2_TS_DEWT_052020.nc | 28-Oct-2024 01:36 | 446057 | ||
| WAHV2_TS_DEWT_052021.nc | 28-Oct-2024 01:36 | 450067 | ||
| WAHV2_TS_DEWT_052022.nc | 28-Oct-2024 01:36 | 429893 | ||
| WAHV2_TS_DEWT_052023.nc | 28-Oct-2024 01:36 | 429898 | ||
| WAHV2_TS_DEWT_062005.nc | 28-Oct-2024 01:36 | 449158 | ||
| WAHV2_TS_DEWT_062007.nc | 28-Oct-2024 01:36 | 429896 | ||
| WAHV2_TS_DEWT_062008.nc | 28-Oct-2024 01:36 | 430014 | ||
| WAHV2_TS_DEWT_062009.nc | 28-Oct-2024 01:36 | 1266276 | ||
| WAHV2_TS_DEWT_062010.nc | 28-Oct-2024 01:36 | 1142342 | ||
| WAHV2_TS_DEWT_062011.nc | 28-Oct-2024 01:36 | 1264077 | ||
| WAHV2_TS_DEWT_062012.nc | 28-Oct-2024 01:37 | 1007207 | ||
| WAHV2_TS_DEWT_062013.nc | 28-Oct-2024 01:37 | 1263943 | ||
| WAHV2_TS_DEWT_062014.nc | 28-Oct-2024 01:37 | 1262967 | ||
| WAHV2_TS_DEWT_062015.nc | 28-Oct-2024 01:37 | 4375544 | ||
| WAHV2_TS_DEWT_062016.nc | 28-Oct-2024 01:37 | 3916207 | ||
| WAHV2_TS_DEWT_062017.nc | 28-Oct-2024 01:37 | 429337 | ||
| WAHV2_TS_DEWT_062018.nc | 28-Oct-2024 01:37 | 429337 | ||
| WAHV2_TS_DEWT_062019.nc | 28-Oct-2024 01:37 | 421701 | ||
| WAHV2_TS_DEWT_062020.nc | 28-Oct-2024 01:37 | 429353 | ||
| WAHV2_TS_DEWT_062021.nc | 28-Oct-2024 01:37 | 429327 | ||
| WAHV2_TS_DEWT_062022.nc | 28-Oct-2024 01:37 | 429353 | ||
| WAHV2_TS_DEWT_062023.nc | 28-Oct-2024 01:37 | 429356 | ||
| WAHV2_TS_DEWT_072005.nc | 28-Oct-2024 01:37 | 429347 | ||
| WAHV2_TS_DEWT_072007.nc | 28-Oct-2024 01:37 | 429355 | ||
| WAHV2_TS_DEWT_072008.nc | 28-Oct-2024 01:38 | 429361 | ||
| WAHV2_TS_DEWT_072009.nc | 28-Oct-2024 01:38 | 429349 | ||
| WAHV2_TS_DEWT_072010.nc | 28-Oct-2024 01:38 | 429351 | ||
| WAHV2_TS_DEWT_072011.nc | 28-Oct-2024 01:38 | 429353 | ||
| WAHV2_TS_DEWT_072012.nc | 28-Oct-2024 01:38 | 429354 | ||
| WAHV2_TS_DEWT_072013.nc | 28-Oct-2024 01:38 | 429353 | ||
| WAHV2_TS_DEWT_072014.nc | 28-Oct-2024 01:38 | 429347 | ||
| WAHV2_TS_DEWT_072015.nc | 28-Oct-2024 01:38 | 429557 | ||
| WAHV2_TS_DEWT_072016.nc | 28-Oct-2024 01:38 | 429557 | ||
| WAHV2_TS_DEWT_072017.nc | 28-Oct-2024 01:38 | 429561 | ||
| WAHV2_TS_DEWT_072018.nc | 28-Oct-2024 01:38 | 429542 | ||
| WAHV2_TS_DEWT_072019.nc | 28-Oct-2024 01:38 | 421761 | ||
| WAHV2_TS_DEWT_072020.nc | 28-Oct-2024 01:38 | 448697 | ||
| WAHV2_TS_DEWT_072021.nc | 28-Oct-2024 01:38 | 449864 | ||
| WAHV2_TS_DEWT_072022.nc | 28-Oct-2024 01:38 | 429558 | ||
| WAHV2_TS_DEWT_072023.nc | 28-Oct-2024 01:38 | 429560 | ||
| WAHV2_TS_DEWT_082005.nc | 28-Oct-2024 01:38 | 429556 | ||
| WAHV2_TS_DEWT_082007.nc | 28-Oct-2024 01:38 | 429560 | ||
| WAHV2_TS_DEWT_082008.nc | 28-Oct-2024 01:39 | 429558 | ||
| WAHV2_TS_DEWT_082009.nc | 28-Oct-2024 01:39 | 1114710 | ||
| WAHV2_TS_DEWT_082010.nc | 28-Oct-2024 01:39 | 994738 | ||
| WAHV2_TS_DEWT_082011.nc | 28-Oct-2024 01:39 | 1105936 | ||
| WAHV2_TS_DEWT_082012.nc | 28-Oct-2024 01:39 | 1110481 | ||
| WAHV2_TS_DEWT_082013.nc | 28-Oct-2024 01:39 | 1110070 | ||
| WAHV2_TS_DEWT_082014.nc | 28-Oct-2024 01:39 | 1110966 | ||
| WAHV2_TS_DEWT_082015.nc | 28-Oct-2024 01:39 | 4845605 | ||
| WAHV2_TS_DEWT_082016.nc | 28-Oct-2024 01:39 | 429670 | ||
| WAHV2_TS_DEWT_082017.nc | 28-Oct-2024 01:39 | 429653 | ||
| WAHV2_TS_DEWT_082018.nc | 28-Oct-2024 01:39 | 429682 | ||
| WAHV2_TS_DEWT_082019.nc | 28-Oct-2024 01:39 | 429666 | ||
| WAHV2_TS_DEWT_082020.nc | 28-Oct-2024 01:39 | 429672 | ||
| WAHV2_TS_DEWT_082021.nc | 28-Oct-2024 01:39 | 425485 | ||
| WAHV2_TS_DEWT_082022.nc | 28-Oct-2024 01:40 | 429680 | ||
| WAHV2_TS_DEWT_082023.nc | 28-Oct-2024 01:40 | 429690 | ||
| WAHV2_TS_DEWT_092005.nc | 28-Oct-2024 01:40 | 429662 | ||
| WAHV2_TS_DEWT_092007.nc | 28-Oct-2024 01:40 | 429676 | ||
| WAHV2_TS_DEWT_092008.nc | 28-Oct-2024 01:40 | 429689 | ||
| WAHV2_TS_DEWT_092009.nc | 28-Oct-2024 01:40 | 429679 | ||
| WAHV2_TS_DEWT_092010.nc | 28-Oct-2024 01:40 | 419657 | ||
| WAHV2_TS_DEWT_092011.nc | 28-Oct-2024 01:40 | 429676 | ||
| WAHV2_TS_DEWT_092012.nc | 28-Oct-2024 01:40 | 429675 | ||
| WAHV2_TS_DEWT_092013.nc | 28-Oct-2024 01:40 | 429683 | ||
| WAHV2_TS_DEWT_092014.nc | 28-Oct-2024 01:40 | 429683 | ||
| WAHV2_TS_DEWT_092015.nc | 28-Oct-2024 01:40 | 429901 | ||
| WAHV2_TS_DEWT_092016.nc | 28-Oct-2024 01:40 | 429899 | ||
| WAHV2_TS_DEWT_092017.nc | 28-Oct-2024 01:40 | 429899 | ||
| WAHV2_TS_DEWT_092018.nc | 28-Oct-2024 01:40 | 429883 | ||
| WAHV2_TS_DEWT_092019.nc | 28-Oct-2024 01:41 | 449425 | ||
| WAHV2_TS_DEWT_092020.nc | 28-Oct-2024 01:41 | 439210 | ||
| WAHV2_TS_DEWT_092021.nc | 28-Oct-2024 01:41 | 429896 | ||
| WAHV2_TS_DEWT_092022.nc | 28-Oct-2024 01:41 | 419589 | ||
| WAHV2_TS_DEWT_092023.nc | 28-Oct-2024 01:41 | 429901 | ||
| WAHV2_TS_DEWT_102005.nc | 28-Oct-2024 01:41 | 429898 | ||
| WAHV2_TS_DEWT_102007.nc | 28-Oct-2024 01:41 | 429555 | ||
| WAHV2_TS_DEWT_102008.nc | 28-Oct-2024 01:41 | 1264253 | ||
| WAHV2_TS_DEWT_102010.nc | 28-Oct-2024 01:41 | 1268306 | ||
| WAHV2_TS_DEWT_102011.nc | 28-Oct-2024 01:41 | 1263886 | ||
| WAHV2_TS_DEWT_102012.nc | 28-Oct-2024 01:41 | 1265639 | ||
| WAHV2_TS_DEWT_102013.nc | 28-Oct-2024 01:41 | 1264376 | ||
| WAHV2_TS_DEWT_102014.nc | 28-Oct-2024 01:41 | 5308930 | ||
| WAHV2_TS_DEWT_102015.nc | 28-Oct-2024 01:42 | 429336 | ||
| WAHV2_TS_DEWT_102016.nc | 28-Oct-2024 01:42 | 429340 | ||
| WAHV2_TS_DEWT_102017.nc | 28-Oct-2024 01:42 | 429352 | ||
| WAHV2_TS_DEWT_102019.nc | 28-Oct-2024 01:42 | 429336 | ||
| WAHV2_TS_DEWT_102020.nc | 28-Oct-2024 01:42 | 429347 | ||
| WAHV2_TS_DEWT_102021.nc | 28-Oct-2024 01:42 | 429351 | ||
| WAHV2_TS_DEWT_102022.nc | 28-Oct-2024 01:42 | 429360 | ||
| WAHV2_TS_DEWT_102023.nc | 28-Oct-2024 01:42 | 429339 | ||
| WAHV2_TS_DEWT_112005.nc | 28-Oct-2024 01:42 | 429355 | ||
| WAHV2_TS_DEWT_112007.nc | 28-Oct-2024 01:42 | 429362 | ||
| WAHV2_TS_DEWT_112008.nc | 28-Oct-2024 01:42 | 429357 | ||
| WAHV2_TS_DEWT_112009.nc | 28-Oct-2024 01:42 | 423337 | ||
| WAHV2_TS_DEWT_112010.nc | 28-Oct-2024 01:42 | 429358 | ||
| WAHV2_TS_DEWT_112011.nc | 28-Oct-2024 01:43 | 429358 | ||
| WAHV2_TS_DEWT_112012.nc | 28-Oct-2024 01:43 | 429345 | ||
| WAHV2_TS_DEWT_112013.nc | 28-Oct-2024 01:43 | 418868 | ||
| WAHV2_TS_DEWT_112014.nc | 28-Oct-2024 01:43 | 429555 | ||
| WAHV2_TS_DEWT_112015.nc | 28-Oct-2024 01:43 | 429561 | ||
| WAHV2_TS_DEWT_112016.nc | 28-Oct-2024 01:43 | 429558 | ||
| WAHV2_TS_DEWT_112017.nc | 28-Oct-2024 01:43 | 429560 | ||
| WAHV2_TS_DEWT_112018.nc | 28-Oct-2024 01:43 | 449418 | ||
| WAHV2_TS_DEWT_112019.nc | 28-Oct-2024 01:43 | 419988 | ||
| WAHV2_TS_DEWT_112020.nc | 28-Oct-2024 01:43 | 429557 | ||
| WAHV2_TS_DEWT_112021.nc | 28-Oct-2024 01:43 | 429558 | ||
| WAHV2_TS_DEWT_112022.nc | 28-Oct-2024 01:43 | 429547 | ||
| WAHV2_TS_DEWT_112023.nc | 28-Oct-2024 01:43 | 429672 | ||
| WAHV2_TS_DEWT_122007.nc | 28-Oct-2024 01:43 | 1111892 | ||
| WAHV2_TS_DEWT_122008.nc | 28-Oct-2024 01:43 | 917455 | ||
| WAHV2_TS_DEWT_122009.nc | 28-Oct-2024 01:44 | 1117638 | ||
| WAHV2_TS_DEWT_122010.nc | 28-Oct-2024 01:44 | 1111528 | ||
| WAHV2_TS_DEWT_122011.nc | 28-Oct-2024 01:44 | 1113952 | ||
| WAHV2_TS_DEWT_122012.nc | 28-Oct-2024 01:44 | 1116241 | ||
| WAHV2_TS_DEWT_122013.nc | 28-Oct-2024 01:44 | 5071090 | ||
| WAHV2_TS_DEWT_122014.nc | 28-Oct-2024 01:44 | 429669 | ||
| WAHV2_TS_DEWT_122015.nc | 28-Oct-2024 01:44 | 429663 | ||
| WAHV2_TS_DEWT_122016.nc | 28-Oct-2024 01:44 | 429675 | ||
| WAHV2_TS_DEWT_122017.nc | 28-Oct-2024 01:44 | 425023 | ||
| WAHV2_TS_DEWT_122018.nc | 28-Oct-2024 01:44 | 428384 | ||
| WAHV2_TS_DEWT_122019.nc | 28-Oct-2024 01:44 | 429657 | ||
| WAHV2_TS_DEWT_122020.nc | 28-Oct-2024 01:44 | 426553 | ||
| WAHV2_TS_DEWT_122022.nc | 28-Oct-2024 01:45 | 429660 | ||
| WAHV2_TS_DEWT_122023.nc | 28-Oct-2024 01:45 | 429676 | ||